Weather History for Canby, MN

Change the Weather History Date:

Friday, January 3, 2014

  Actual Average (KMML) Record (KMML)
Temperature  
Mean Temperature 20 °F -  
Max Temperature 37 °F 24 °F 46 °F (1964)
Min Temperature 2 °F 5 °F -18 °F (1969)
Degree Days  
Heating Degree Days 46    
Moisture  
Dew Point 14 °F    
Average Humidity 80    
Maximum Humidity 85    
Minimum Humidity 71    
Precipitation  
Precipitation 0.00 in - - ()
Sea Level Pressure  
Sea Level Pressure 29.62 in    
Wind  
Wind Speed 15 mph (SSW)    
Max Wind Speed 30 mph    
Max Gust Speed 43 mph    
Visibility 8 miles    
Events      
Averages and records for this station are not official NWS values.
T = Trace of Precipitation, MM = Missing Value Source: NWS Daily Summary

Daily Weather History Graph

Daily Weather History Graph

Search for Another Location

Airport:

Trip Planner

Search our weather history database for the weather conditions in past years. The results will help you decide how hot, cold, wet, or windy it might be!

Date:

Astronomy

Jan. 03, 2014 Rise Set
Actual Time 8:02 AM CST 4:57 PM CST
Civil Twilight 7:29 AM CST 5:30 PM CST
Nautical Twilight 6:52 AM CST 6:07 PM CST
Astronomical Twilight 6:16 AM CST 6:42 PM CST
Moon 9:21 AM CST (1/3) 8:16 PM CST (1/3)
Length of Visible Light 10h 01m
Length of Day
8h 54m
Waxing Crescent, 8% of the Moon is Illuminated
Jan 3
Waxing Crescent
Jan 7
First Quarter
Jan 15
Full
Jan 23
Last Quarter
Jan 30
New

Hourly Weather History & Observations

Time (CST) Temp. Windchill Dew Point Humidity Pressure Visibility Wind Dir Wind Speed Gust Speed Precip Events Conditions
12:15 AM 2.1 °F -15.2 °F -5.4 °F 71% 30.19 in 10.0 mi South 12.7 mph 18.4 mph N/A   Overcast
12:25 AM 2.3 °F -13.4 °F -4.9 °F 72% 30.18 in 10.0 mi South 10.4 mph 18.4 mph N/A   Overcast
12:55 AM 3.2 °F -11.3 °F -4.0 °F 72% 30.16 in 10.0 mi SSE 9.2 mph 16.1 mph N/A   Overcast
1:15 AM 3.9 °F -13.0 °F -3.1 °F 73% 30.14 in 10.0 mi South 12.7 mph - N/A   Overcast
1:35 AM 4.5 °F -13.0 °F -2.6 °F 73% 30.12 in 10.0 mi South 13.8 mph - N/A   Overcast
1:55 AM 5.0 °F -10.8 °F -1.8 °F 73% 30.10 in 10.0 mi South 11.5 mph 19.6 mph N/A   Scattered Clouds
2:15 AM 5.0 °F -10.8 °F -1.7 °F 74% 30.07 in 10.0 mi SSE 11.5 mph 17.3 mph N/A   Clear
2:35 AM 5.9 °F -8.9 °F -0.8 °F 74% 30.07 in 10.0 mi SSE 10.4 mph - N/A   Scattered Clouds
2:55 AM 7.7 °F -2.4 °F 1.0 °F 74% 30.06 in 10.0 mi SSE 5.8 mph - N/A   Overcast
3:15 AM 9.0 °F -5.9 °F 2.3 °F 74% 30.03 in 10.0 mi South 11.5 mph 21.9 mph N/A   Overcast
3:35 AM 9.1 °F -8.2 °F 4.5 °F 81% 30.01 in 7.0 mi South 16.1 mph 21.9 mph N/A   Overcast
3:55 AM 10.6 °F -6.4 °F 7.0 °F 85% 29.97 in 7.0 mi South 16.1 mph 24.2 mph N/A   Overcast
4:15 AM 10.8 °F -7.7 °F 6.8 °F 84% 29.95 in 5.0 mi South 19.6 mph 26.5 mph N/A   Overcast
4:35 AM 10.4 °F -3.3 °F 6.4 °F 84% 29.93 in 7.0 mi SSE 10.4 mph 18.4 mph N/A   Overcast
4:55 AM 10.4 °F -4.1 °F 6.4 °F 84% 29.91 in 7.0 mi SE 11.5 mph 20.7 mph N/A   Scattered Clouds
5:14 AM 10.8 °F -5.0 °F 7.0 °F 85% 29.89 in 7.0 mi SSE 13.8 mph 20.7 mph N/A   Clear
5:35 AM 10.9 °F -4.1 °F 7.2 °F 85% 29.85 in 5.0 mi South 12.7 mph 23.0 mph N/A   Scattered Clouds
5:55 AM 10.9 °F -3.4 °F 6.8 °F 83% 29.85 in 5.0 mi South 11.5 mph 18.4 mph N/A   Overcast
6:15 AM 11.1 °F -1.6 °F 6.8 °F 83% 29.83 in 7.0 mi South 9.2 mph 20.7 mph N/A   Overcast
6:35 AM 11.3 °F -0.4 °F 6.8 °F 82% 29.82 in 7.0 mi SSE 8.1 mph 16.1 mph N/A   Overcast
6:55 AM 12.0 °F -0.4 °F 7.9 °F 83% 29.79 in 7.0 mi South 9.2 mph 18.4 mph N/A   Overcast
7:15 AM 12.6 °F 0.2 °F 8.6 °F 84% 29.78 in 7.0 mi SSE 9.2 mph 20.7 mph N/A   Overcast
7:35 AM 13.1 °F 0.9 °F 8.8 °F 83% 29.75 in 7.0 mi SSW 9.2 mph 23.0 mph N/A   Mostly Cloudy
7:55 AM 13.5 °F -5.0 °F 9.1 °F 83% 29.70 in 5.0 mi SSW 21.9 mph 33.4 mph N/A   Mostly Cloudy
8:15 AM 13.6 °F -5.9 °F 9.3 °F 83% 29.70 in 2.0 mi SSW 25.3 mph 35.7 mph N/A   Overcast
8:35 AM 14.0 °F -5.8 °F 9.5 °F 82% 29.68 in 3.0 mi SSW 26.5 mph 38.0 mph N/A   Haze
8:55 AM 14.0 °F -6.8 °F 9.1 °F 81% 29.66 in 2.5 mi SSW 29.9 mph 39.1 mph N/A   Haze
9:15 AM 14.0 °F -6.8 °F 9.3 °F 82% 29.65 in 2.5 mi SSW 29.9 mph 40.3 mph N/A   Haze
9:34 AM 14.0 °F -5.8 °F 8.8 °F 80% 29.65 in 4.0 mi SSW 26.5 mph 38.0 mph N/A   Haze
9:55 AM 13.8 °F -6.1 °F 8.6 °F 80% 29.64 in 3.0 mi SSW 26.5 mph 35.7 mph N/A   Haze
10:15 AM 14.2 °F -3.2 °F 8.8 °F 79% 29.64 in 7.0 mi SSW 19.6 mph 32.2 mph N/A   Clear
10:35 AM 14.9 °F -0.3 °F 9.5 °F 79% 29.63 in 10.0 mi South 15.0 mph 27.6 mph N/A   Clear
10:55 AM 16.2 °F -0.2 °F 10.6 °F 79% 29.59 in 10.0 mi South 18.4 mph 27.6 mph N/A   Clear
11:15 AM 17.1 °F 3.0 °F 11.5 °F 79% 29.58 in 10.0 mi South 13.8 mph 23.0 mph N/A   Clear
11:35 AM 17.6 °F 3.2 °F 12.2 °F 79% 29.56 in 10.0 mi SSW 15.0 mph 19.6 mph N/A   Clear
11:55 AM 17.6 °F 1.3 °F 12.2 °F 79% 29.53 in 7.0 mi SSW 19.6 mph 31.1 mph N/A   Clear
12:15 PM 18.1 °F 0.4 °F 12.6 °F 79% 29.51 in 7.0 mi SSW 24.2 mph 33.4 mph N/A   Clear
12:35 PM 18.5 °F 2.9 °F 12.9 °F 79% 29.48 in 7.0 mi SSW 18.4 mph 31.1 mph N/A   Clear
12:55 PM 19.8 °F 2.2 °F 14.0 °F 78% 29.44 in 5.0 mi SSW 25.3 mph 33.4 mph N/A   Haze
1:15 PM 20.3 °F 2.3 °F 14.5 °F 78% 29.42 in 5.0 mi SW 27.6 mph 36.8 mph N/A   Haze
1:35 PM 20.7 °F 3.1 °F 14.9 °F 78% 29.40 in 5.0 mi SSW 26.5 mph 42.6 mph N/A   Haze
1:54 PM 21.2 °F 3.9 °F 15.6 °F 79% 29.39 in 5.0 mi SW 26.5 mph 41.4 mph N/A   Haze
2:15 PM 21.9 °F 17.2 °F 16.0 °F 78% 29.42 in 10.0 mi ENE 3.5 mph 23.0 mph N/A   Overcast
2:35 PM 22.5 °F 12.4 °F 16.7 °F 79% 29.41 in 10.0 mi South 9.2 mph - N/A   Overcast
2:55 PM 23.0 °F 13.1 °F 17.6 °F 80% 29.39 in 10.0 mi SSW 9.2 mph 18.4 mph N/A   Overcast
3:15 PM 23.9 °F 14.2 °F 18.5 °F 80% 29.39 in 10.0 mi SW 9.2 mph 21.9 mph N/A   Overcast
3:35 PM 24.6 °F 16.7 °F 19.2 °F 80% 29.38 in 10.0 mi SSE 6.9 mph 18.4 mph N/A   Overcast
3:55 PM 25.2 °F 17.3 °F 19.6 °F 79% 29.40 in 10.0 mi East 6.9 mph - N/A   Mostly Cloudy
4:14 PM 25.7 °F 15.1 °F 20.3 °F 80% 29.39 in 10.0 mi SSE 11.5 mph 17.3 mph N/A   Overcast
4:35 PM 26.6 °F 20.0 °F 21.2 °F 80% 29.39 in 10.0 mi South 5.8 mph - N/A   Overcast
4:55 PM 27.1 °F 18.2 °F 21.7 °F 80% 29.39 in 10.0 mi SSW 9.2 mph 19.6 mph N/A   Overcast
5:15 PM 28.0 °F 22.8 °F 22.5 °F 80% 29.39 in 10.0 mi SW 4.6 mph 18.4 mph N/A   Overcast
5:35 PM 28.4 °F 15.1 °F 23.0 °F 80% 29.37 in 10.0 mi SW 20.7 mph 31.1 mph N/A   Overcast
5:55 PM 29.3 °F 15.9 °F 23.7 °F 80% 29.37 in 10.0 mi SW 21.9 mph 33.4 mph N/A   Overcast
6:15 PM 30.0 °F 16.9 °F 24.3 °F 79% 29.37 in 10.0 mi SW 21.9 mph 31.1 mph N/A   Overcast
6:35 PM 30.4 °F 18.0 °F 24.6 °F 79% 29.36 in 10.0 mi SSW 19.6 mph 27.6 mph N/A   Overcast
6:55 PM 31.1 °F 20.5 °F 25.2 °F 79% 29.36 in 10.0 mi SSW 15.0 mph 23.0 mph N/A   Overcast
7:15 PM 31.6 °F 19.3 °F 25.7 °F 79% 29.36 in 10.0 mi SW 20.7 mph 29.9 mph N/A   Overcast
7:34 PM 31.8 °F 20.2 °F 26.2 °F 80% 29.36 in 10.0 mi SW 18.4 mph 29.9 mph N/A   Overcast
7:55 PM 32.0 °F 20.8 °F 26.4 °F 80% 29.36 in 10.0 mi SSW 17.3 mph 24.2 mph N/A   Overcast
8:15 PM 32.0 °F 20.1 °F 27.0 °F 82% 29.36 in 10.0 mi SW 19.6 mph 29.9 mph N/A   Overcast
8:35 PM 32.4 °F 20.0 °F 28.2 °F 85% 29.35 in 5.0 mi SW 21.9 mph 29.9 mph N/A   Overcast
8:55 PM 32.9 °F 20.1 °F 28.9 °F 85% 29.36 in 10.0 mi SW 24.2 mph 31.1 mph N/A   Overcast
9:15 PM 32.9 °F 20.1 °F 28.9 °F 85% 29.36 in 10.0 mi SW 24.2 mph 32.2 mph N/A   Overcast
9:35 PM 34.0 °F 21.8 °F 29.8 °F 85% 29.38 in 10.0 mi SW 23.0 mph 29.9 mph N/A   Overcast
9:55 PM 35.2 °F 24.1 °F 30.2 °F 82% 29.38 in 10.0 mi SW 20.7 mph 32.2 mph N/A   Overcast
10:15 PM 36.1 °F 26.5 °F 31.1 °F 82% 29.37 in 10.0 mi WSW 16.1 mph 24.2 mph N/A   Overcast
10:35 PM 37.0 °F 28.5 °F 31.5 °F 80% 29.36 in 10.0 mi WSW 13.8 mph - N/A   Overcast
10:54 PM 36.7 °F 28.4 °F 31.6 °F 82% 29.40 in 10.0 mi WSW 12.7 mph 20.7 mph N/A   Overcast
11:15 PM 36.5 °F 28.7 °F 31.6 °F 83% 29.41 in 10.0 mi WSW 11.5 mph - N/A   Mostly Cloudy
11:35 PM 36.9 °F 28.7 °F 32.0 °F 83% 29.42 in 10.0 mi WSW 12.7 mph - N/A   Scattered Clouds
11:55 PM 37.9 °F 30.0 °F 32.0 °F 79% 29.42 in 10.0 mi West 12.7 mph - N/A   Clear